This demonstration page uses our WeatherBlox Daily Observations layout. Learn more.

38.88101, -77.10428

Hourly Observations for July 5, 2019

Temp ( °F °C ) Dew Point ( °F °C ) Humidity (%) Winds ( mph kmh ) Pressure ( in mb ) Visibility ( mi km ) Precip ( " mm )
12:22 am 00:22 Cloudy with Haze 78 25.6 72 22.2 82 82 NE 5 7 30.09 1019 5 8.04672 0 0
12:43 am 00:43 Cloudy with Light Thunderstorms 77 25 73 22.8 88 88 NNE 3 6 30.09 1019 3 4.828032 0.01 0.254
12:52 am 00:52 Cloudy with Light Thunderstorms 77 25 73 22.8 88 88 N 5 7 30.09 1019 3 4.828032 0.02 0.508
1:08 am 01:08 Cloudy with Light Thunderstorms 77 25 73 22.8 88 88 NNE 6 9 30.09 1019 3 4.828032 0.001 0.001
1:28 am 01:28 Cloudy with Mist and Fog 77 25 74 23.3 90 90 NE 8 13 30.09 1019 2.5 4.02336 0.01 0.254
1:31 am 01:31 Cloudy with Mist and Fog 77 25 74 23.3 90 90 NE 8 13 30.09 1019 3 4.828032 0.01 0.254
1:52 am 01:52 Cloudy with Mist and Fog 77 25 73 22.8 88 88 NNE 8 13 30.06 1018 6 9.656064 0.01 0.254
2:10 am 02:10 Cloudy with Mist and Fog 77 25 74 23.3 90 90 NE 7 11 30.09 1019 4 6.437376 0 0
2:52 am 02:52 Cloudy 77 25 73 22.8 88 88 E 7 11 30.06 1018 7 11.265408 0 0
3:16 am 03:16 Cloudy 77 25 73 22.8 88 88 E 6 9 30.09 1019 10 16.09344 0 0
3:52 am 03:52 Cloudy 77 25 73 22.8 88 88 ENE 5 7 30.06 1018 10 16.09344 0 0
3:59 am 03:59 Cloudy 77 25 73 22.8 88 88 ENE 5 7 30.09 1019 10 16.09344 0 0
4:52 am 04:52 Cloudy 77 25 73 22.8 88 88 E 3 6 30.09 1019 7 11.265408 0 0
5:52 am 05:52 Cloudy 77 25 73 22.8 88 88 Calm 30.09 1019 10 16.09344 0 0
6:35 am 06:35 Cloudy 78 25.6 73 22.8 85 85 E 3 6 30.09 1019 10 16.09344 0 0
6:52 am 06:52 Cloudy 78 25.6 73 22.8 85 85 Calm 30.09 1019 10 16.09344 0 0
6:59 am 06:59 Cloudy 78 25.6 73 22.8 85 85 Calm 30.12 1020 10 16.09344 0 0
7:29 am 07:29 Cloudy 78 25.6 74 23.3 87 87 Calm 30.12 1020 9 14.484096 0 0
7:45 am 07:45 Cloudy 78 25.6 74 23.3 87 87 ENE 3 6 30.12 1020 8 12.874752 0 0
7:52 am 07:52 Cloudy 79 26.1 74 23.3 85 85 Calm 30.09 1019 8 12.874752 0 0
8:12 am 08:12 Cloudy 79 26.1 75 23.9 88 88 NE 5 7 30.12 1020 8 12.874752 0 0
8:44 am 08:44 Cloudy 80 26.7 75 23.9 85 85 Calm 30.12 1020 9 14.484096 0 0
8:52 am 08:52 Cloudy 80 26.7 75 23.9 85 85 S 6 9 30.12 1020 9 14.484096 0 0
9:11 am 09:11 Partly Cloudy 80 26.7 76 24.4 87 87 VRB 5 7 30.12 1020 10 16.09344 0 0
9:52 am 09:52 Partly Cloudy 81 27.2 75 23.9 82 82 S 6 9 30.09 1019 10 16.09344 0 0
10:52 am 10:52 Partly Cloudy 83 28.3 75 23.9 77 77 S 8 13 30.09 1019 10 16.09344 0 0
11:52 am 11:52 Mostly Sunny 85 29.4 73 22.8 68 68 S 9 15 30.09 1019 10 16.09344 0 0
12:52 pm 12:52 Partly Cloudy 87 30.6 72 22.2 61 61 S 8 13 30.09 1019 10 16.09344 0 0
1:52 pm 13:52 Partly Cloudy 88 31.1 73 22.8 61 61 SSE 8 13 30.06 1018 10 16.09344 0 0
2:52 pm 14:52 Partly Cloudy 88 31.1 74 23.3 63 63 SSE 9 15 30.03 1017 10 16.09344 0 0
3:52 pm 15:52 Partly Cloudy 90 32.2 73 22.8 58 58 S 12 19 30.03 1017 10 16.09344 0 0
4:52 pm 16:52 Partly Cloudy 89 31.7 74 23.3 61 61 S 13 20 30.03 1017 10 16.09344 0 0
5:52 pm 17:52 Mostly Cloudy 89 31.7 74 23.3 61 61 S 14 22 30 1016 10 16.09344 0 0
7:52 pm 19:52 Sunny 86 30 73 22.8 65 65 S 8 13 30.03 1017 10 16.09344 0 0
8:52 pm 20:52 Mostly Cloudy 85 29.4 72 22.2 65 65 SW 6 9 30.03 1017 10 16.09344 0 0
9:52 pm 21:52 Mostly Cloudy 84 28.9 73 22.8 70 70 SSW 6 9 30.03 1017 10 16.09344 0 0
10:52 pm 22:52 Mostly Cloudy 83 28.3 75 23.9 77 77 S 6 9 30.03 1017 10 16.09344 0 0
11:52 pm 23:52 Mostly Cloudy 82 27.8 75 23.9 79 79 S 5 7 30.03 1017 10 16.09344 0 0

Powered by AerisWeather